Location: Newark
(37.9000°S, 166.5167°W)
Time: 07:25:31
(UTC+00:00)

Envisat - Pass Details

Date: 27 January 2020
Orbit: 764 x 766 km, 98.1° (Epoch: 20 February)

Event Time Altitude Azimuth Distance (km) Brightness Sun altitude
Rises 07:28:38 0° 193° (SSW) 3,267 7.1 -11.9°
Reaches altitude 10° 07:33:46 10° 237° (WSW) 2,327 7.0 -12.7°
Maximum altitude 07:34:03 10° 240° (WSW) 2,323 7.0 -12.8°
Drops below altitude 10° 07:34:20 10° 243° (WSW) 2,325 6.9 -12.8°
Sets 07:39:27 0° 288° (WNW) 3,238 6.8 -13.6°
